Wind_Speed
9 10 10 10 10 9 9 9 9 9 9 9 9 9 10 10 10 10 10 11 11 10 10 10 10 9 9 9 9 9 8 7 7 7 7 7 7 7 7 7 7 7 8
8 9 9 9 9 8 8 8 8 8 8 8 8 8 8 9 9 9 9 9 9 9 9 9 9 9 8 8 8 8 8 7 7 7 7 7 7 6 6 6 6 6 7
7 8 9 8 7 7 7 7 7 7 7 7 8 8 8 8 8 8 8 8 8 8 8 8 8 7 7 7 7 7 7 6 6 6 6 5 5 5 5 5 5 5 6
5 6 8 7 7 7 7 6 6 6 7 7 7 7 7 7 7 7 7 7 7 7 6 7 6 6 6 6 6 6 6 6 5 5 5 5 5 5 5 5 5 4 5
4 6 7 7 6 6 5 5 5 5 5 6 6 7 7 7 6 6 6 6 6 6 6 5 5 5 4 4 5 5 5 5 5 5 5 5 5 5 5 4 5 5 5
4 5 6 7 6 5 5 4 4 4 5 5 6 7 7 6 6 6 6 5 5 5 5 4 4 3 3 3 3 4 4 4 4 4 4 5 5 5 5 5 4 4 4
5 6 6 6 5 5 4 4 4 4 4 5 5 6 6 6 6 5 5 5 4 4 4 3 3 3 2 2 2 3 3 4 4 3 4 4 5 4 4 5 4 4 4
4 5 5 6 5 5 5 4 4 4 4 4 5 5 5 5 5 5 4 4 3 3 3 2 2 2 2 2 1 2 2 3 3 3 3 3 4 4 4 4 4 3 3
5 5 5 5 5 5 5 5 5 5 5 5 5 4 4 5 5 4 4 3 3 2 2 2 1 1 1 0 1 1 2 3 3 2 3 3 4 4 4 3 3 3 3
5 6 6 6 6 6 5 5 6 6 5 5 5 4 4 4 4 4 4 3 3 2 2 1 0 0 1 1 1 1 2 2 2 2 3 3 3 3 3 3 3 3 3
6 7 7 7 7 7 6 6 6 6 6 5 5 4 4 4 5 5 4 4 3 2 2 2 1 1 2 2 2 2 2 3 1 2 3 2 3 3 3 3 4 3 3
6 7 7 7 7 7 7 7 7 6 6 6 5 5 5 5 5 5 5 4 4 2 2 2 2 2 2 2 3 3 3 2 2 2 3 3 3 3 3 3 4 4 3
8 8 8 8 8 8 8 8 8 7 7 6 6 6 6 6 6 6 6 6 5 4 3 3 2 2 3 3 3 3 3 2 3 3 3 3 3 3 3 3 3 4 4
9 9 9 9 8 8 8 8 8 8 7 7 7 7 6 6 7 6 7 6 5 5 4 3 3 3 3 3 3 3 3 3 3 3 4 3 3 3 3 3 4 4 4
9 9 10 9 9 9 8 9 9 8 8 8 8 8 8 7 7 7 7 7 6 5 5 4 4 4 4 3 4 4 3 4 3 4 4 4 3 3 4 3 3 3 4
10 10 10 10 10 10 10 10 10 10 10 9 9 9 8 8 8 8 7 7 6 6 6 5 5 5 5 4 4 4 4 4 3 4 4 3 3 3 3 3 3 4 5
9 9 10 10 11 11 11 11 11 10 10 10 10 9 9 8 8 8 8 8 7 7 8 7 6 5 5 5 5 4 4 4 4 4 4 3 3 3 4 4 4 5 5
10 10 11 11 12 12 12 12 12 11 11 11 10 10 10 9 9 9 9 8 8 8 8 8 7 6 6 5 5 4 5 5 5 5 5 4 4 4 4 5 5 5 5
11 12 11 12 12 13 13 12 12 12 12 12 12 12 12 11 11 10 10 10 9 9 9 8 7 7 7 6 6 5 5 5 5 5 5 4 4 5 5 5 5 6 6
11 11 12 12 12 13 13 14 14 13 13 14 13 13 13 13 12 11 11 11 10 9 9 9 9 8 8 8 7 6 6 6 5 5 5 4 4 5 5 5 5 5 6
11 11 11 12 13 14 14 14 14 14 14 14 14 14 14 14 13 12 11 11 11 10 10 10 9 9 9 8 8 7 7 7 7 6 6 6 6 6 6 6 6 6 7
11 12 12 12 13 13 14 14 14 14 14 14 14 14 14 14 13 13 12 12 12 11 11 10 10 10 9 8 8 7 7 7 7 6 6 6 6 6 6 7 6 7 7
11 11 12 12 13 13 13 12 13 14 14 14 14 13 13 13 13 13 13 13 12 12 11 11 10 10 10 9 8 8 7 7 6 6 6 6 6 6 6 6 6 6 6
12 12 12 12 12 12 11 11 12 13 14 14 13 12 12 13 13 13 13 13 13 11 11 10 10 10 10 10 10 9 8 8 8 7 7 6 7 7 6 6 6 6 6
12 12 12 12 12 12 12 12 12 13 13 12 12 12 12 12 12 12 13 13 12 11 11 10 10 10 10 10 10 10 9 9 8 8 8 7 7 7 6 6 6 7 7
13 13 12 13 13 12 12 13 13 13 12 12 11 11 11 12 12 11 11 11 12 11 11 11 10 10 10 10 10 10 9 9 9 8 8 8 7 7 6 6 7 8 8
Wind_Direction
119 121 122 124 123 122 121 121 122 121 121 120 119 117 114 111 109 108 108 107 107 107 106 108 106 103 99 95 92 88 86 83 82 80 77 72 74 74 72 69 68 72 74
123 125 125 128 128 128 127 125 126 126 126 126 125 122 118 115 113 112 110 110 110 108 106 107 106 102 97 93 91 85 84 80 78 74 74 70 69 69 70 69 69 75 74
129 130 130 129 130 132 134 132 130 129 130 129 131 128 126 122 118 115 112 109 111 108 106 106 105 97 95 93 90 85 81 75 73 73 69 68 67 68 70 70 70 75 75
138 138 135 133 134 136 135 134 133 133 134 135 139 138 137 132 127 121 115 112 111 107 106 104 97 91 91 89 86 82 77 73 70 67 58 59 63 59 62 70 66 68 72
147 149 144 141 140 145 144 140 137 140 140 140 145 144 147 141 135 131 123 121 113 108 104 102 95 85 82 84 83 77 74 73 66 61 56 56 55 55 59 66 57 59 68
163 159 153 154 152 154 157 155 151 147 152 149 151 150 153 150 146 142 135 125 117 111 106 103 96 83 75 76 78 70 68 66 63 58 59 57 52 48 50 59 61 61 65
172 168 162 161 169 171 170 173 172 167 166 164 163 157 155 156 154 152 144 133 130 123 117 111 101 88 71 77 78 73 66 61 59 50 54 58 50 40 45 53 54 58 60
179 178 172 174 180 187 192 192 192 190 187 185 178 167 165 167 165 161 155 148 141 135 131 121 106 87 68 72 84 70 54 48 48 34 34 42 37 34 37 43 42 50 43
201 197 186 189 194 199 204 206 208 207 207 207 203 191 186 183 177 171 167 161 156 154 147 128 99 66 10 4 59 63 49 32 30 12 23 35 35 31 25 19 11 13 21
217 212 208 208 210 213 216 219 220 220 221 222 218 211 205 200 197 189 183 180 176 182 183 172 204 346 341 329 331 359 6 0 5 360 14 22 23 17 8 1 354 354 -0
224 221 220 221 221 222 226 229 226 231 234 230 227 225 223 215 210 205 199 199 199 199 206 220 237 290 309 304 302 313 328 332 343 353 355 360 2 2 354 338 344 347 347
232 228 229 228 230 231 234 236 233 239 241 239 235 234 233 231 224 218 212 216 215 215 227 240 248 282 294 296 303 308 314 314 302 323 335 333 331 333 334 329 338 342 345
241 236 231 232 236 238 239 239 239 245 245 247 248 245 247 242 234 230 227 225 228 230 241 248 253 262 277 282 296 312 319 314 305 311 320 316 315 316 319 322 329 332 328
248 242 236 233 236 239 243 240 241 244 249 252 255 255 262 257 248 242 231 236 241 241 251 256 252 251 259 272 292 307 306 299 311 305 306 306 309 305 303 313 313 317 316
252 247 240 236 239 241 245 243 244 247 250 254 258 258 263 263 256 258 255 244 241 244 251 249 254 257 269 281 291 298 303 307 313 301 304 299 302 308 300 303 308 312 315
263 253 247 244 245 246 250 249 247 249 255 257 259 261 262 261 256 258 265 252 245 250 251 249 256 261 268 275 286 293 302 305 307 305 303 295 299 312 316 299 305 311 313
268 263 255 251 250 249 250 250 250 252 257 259 261 263 260 258 257 256 263 260 254 256 253 251 254 263 268 272 279 292 297 296 295 298 301 299 291 300 320 311 303 307 311
269 265 259 254 253 252 252 250 251 253 256 258 261 263 260 259 260 259 260 261 256 257 258 255 259 266 266 268 277 288 297 297 292 295 294 291 295 300 306 314 308 303 303
272 263 261 256 255 254 253 251 254 256 255 255 258 260 260 260 260 258 255 255 256 257 259 258 260 264 265 266 271 283 289 297 297 297 296 293 298 304 307 310 309 308 305
272 264 261 259 257 257 256 254 253 257 257 255 257 258 259 256 255 255 253 251 254 258 261 261 259 263 265 265 268 274 277 286 296 300 299 302 307 307 313 312 311 319 314
270 264 262 260 261 259 259 257 255 258 258 257 256 258 260 256 254 254 250 248 253 257 262 262 260 263 264 264 269 276 277 279 286 290 293 296 298 301 309 306 304 310 316
268 264 264 264 263 261 262 258 258 259 260 261 260 258 257 253 251 252 249 249 253 256 260 260 260 260 261 264 269 274 278 280 283 288 291 294 298 300 302 310 313 317 317
272 265 266 267 266 264 263 257 256 258 259 263 261 259 257 251 250 250 250 252 253 257 261 262 261 259 260 263 269 274 277 276 277 287 295 299 302 305 308 310 315 319 322
267 265 265 268 269 267 261 262 258 256 260 261 260 260 258 255 251 252 251 251 251 253 256 260 262 262 264 263 266 270 272 274 280 286 291 299 305 304 306 311 317 324 325
265 263 264 266 268 265 262 263 258 257 261 260 256 255 257 253 249 250 251 250 249 249 252 258 261 265 269 268 265 269 269 271 276 281 286 294 301 301 305 309 313 319 319
264 262 263 261 263 263 262 261 257 256 257 260 261 256 256 252 248 250 251 247 249 250 251 255 261 267 269 268 266 267 268 270 272 275 282 289 295 298 303 305 307 307 312
Height
5876 5877 5877 5878 5879 5880 5880 5881 5881 5881 5882 5882 5882 5883 5883 5884 5884 5885 5886 5886 5887 5887 5888 5888 5889 5889 5890 5890 5890 5891 5891 5891 5891 5891 5891 5891 5891 5891 5891 5891 5891 5891 5891
5878 5878 5879 5880 5880 5881 5882 5882 5883 5883 5883 5884 5884 5884 5885 5885 5886 5886 5887 5888 5889 5889 5890 5890 5891 5891 5891 5892 5892 5892 5892 5892 5892 5892 5892 5892 5892 5892 5892 5892 5892 5892 5892
5879 5879 5880 5881 5882 5882 5883 5883 5884 5884 5885 5885 5885 5886 5886 5887 5887 5888 5888 5889 5890 5891 5891 5892 5892 5892 5893 5893 5893 5893 5893 5894 5893 5893 5893 5894 5894 5893 5893 5893 5893 5893 5893
5880 5880 5881 5882 5883 5883 5884 5885 5885 5885 5886 5886 5886 5887 5887 5888 5889 5889 5890 5890 5891 5892 5892 5893 5893 5894 5894 5894 5894 5894 5894 5895 5895 5894 5894 5894 5894 5894 5894 5894 5894 5894 5894
5881 5881 5882 5883 5884 5885 5885 5886 5886 5887 5887 5887 5887 5888 5888 5889 5889 5890 5891 5891 5892 5893 5893 5894 5894 5895 5895 5895 5895 5895 5895 5895 5895 5895 5895 5895 5895 5895 5895 5895 5895 5895 5895
5882 5882 5883 5884 5885 5886 5886 5887 5887 5888 5888 5888 5888 5888 5889 5890 5890 5891 5892 5892 5893 5894 5894 5895 5895 5895 5896 5896 5896 5896 5896 5896 5896 5896 5896 5896 5896 5896 5896 5896 5896 5896 5896
5882 5883 5884 5885 5886 5887 5887 5888 5888 5889 5889 5889 5889 5889 5890 5890 5891 5892 5892 5893 5894 5895 5895 5896 5896 5896 5896 5896 5897 5897 5897 5897 5897 5897 5896 5896 5896 5897 5896 5896 5897 5897 5897
5883 5884 5884 5885 5886 5887 5888 5888 5889 5889 5890 5890 5890 5891 5891 5891 5892 5892 5893 5894 5895 5895 5896 5896 5896 5897 5897 5897 5897 5897 5897 5898 5897 5897 5897 5897 5897 5897 5897 5897 5897 5897 5897
5884 5884 5885 5886 5887 5888 5888 5889 5890 5890 5890 5890 5891 5891 5891 5892 5892 5893 5894 5894 5895 5896 5896 5897 5897 5897 5897 5897 5898 5898 5898 5898 5898 5898 5897 5897 5897 5897 5898 5898 5898 5898 5898
5883 5884 5885 5886 5887 5887 5888 5889 5890 5890 5890 5891 5891 5891 5892 5892 5893 5893 5894 5895 5895 5896 5897 5897 5897 5897 5898 5898 5898 5898 5898 5898 5898 5898 5898 5898 5898 5898 5898 5898 5898 5898 5898
5883 5884 5885 5886 5886 5887 5888 5889 5890 5890 5890 5891 5891 5892 5892 5893 5893 5893 5894 5895 5896 5896 5897 5897 5897 5898 5898 5898 5898 5898 5898 5898 5898 5898 5898 5898 5898 5898 5898 5898 5898 5899 5898
5883 5884 5885 5885 5886 5887 5888 5889 5889 5890 5890 5891 5892 5892 5892 5893 5893 5894 5894 5895 5896 5896 5897 5897 5897 5898 5898 5898 5898 5898 5898 5898 5898 5897 5898 5898 5898 5898 5899 5899 5899 5899 5899
5882 5883 5883 5885 5885 5887 5887 5888 5889 5890 5891 5891 5892 5892 5893 5893 5893 5894 5894 5895 5896 5896 5897 5897 5898 5898 5898 5898 5898 5898 5898 5897 5897 5897 5898 5898 5898 5898 5899 5899 5899 5899 5899
5881 5881 5882 5884 5885 5886 5887 5888 5889 5890 5890 5891 5892 5892 5892 5893 5893 5894 5894 5895 5895 5896 5896 5897 5897 5897 5898 5898 5898 5897 5898 5897 5896 5897 5898 5898 5898 5898 5898 5898 5898 5898 5898
5880 5881 5882 5883 5884 5885 5886 5887 5888 5889 5890 5890 5891 5892 5892 5892 5893 5893 5894 5894 5895 5896 5896 5897 5897 5897 5897 5897 5898 5898 5898 5897 5897 5898 5897 5897 5898 5898 5898 5898 5898 5898 5898
5879 5879 5880 5882 5883 5884 5885 5886 5887 5888 5889 5890 5890 5891 5891 5891 5892 5893 5893 5894 5894 5895 5896 5896 5896 5897 5897 5897 5897 5897 5897 5897 5897 5897 5897 5897 5897 5897 5897 5897 5897 5897 5897
5878 5879 5879 5880 5881 5882 5883 5885 5886 5887 5888 5889 5889 5890 5890 5891 5891 5892 5893 5893 5894 5894 5895 5895 5896 5896 5896 5897 5897 5897 5897 5896 5896 5897 5896 5896 5897 5897 5897 5897 5897 5897 5896
5876 5877 5878 5879 5880 5881 5882 5882 5884 5885 5887 5888 5888 5888 5889 5890 5890 5891 5891 5892 5893 5893 5894 5895 5895 5895 5896 5896 5896 5896 5896 5896 5896 5896 5896 5896 5896 5896 5896 5896 5896 5896 5895
5874 5875 5875 5877 5878 5879 5880 5881 5883 5884 5885 5886 5886 5887 5887 5888 5888 5889 5890 5891 5892 5892 5893 5894 5894 5894 5895 5895 5895 5896 5896 5895 5895 5895 5895 5895 5895 5895 5895 5895 5895 5894 5894
5872 5872 5873 5875 5876 5877 5878 5879 5880 5882 5883 5884 5884 5885 5886 5886 5887 5887 5888 5889 5890 5891 5892 5892 5893 5893 5894 5894 5894 5895 5895 5895 5895 5894 5894 5894 5894 5894 5894 5893 5893 5893 5893
5870 5870 5871 5873 5874 5875 5876 5877 5878 5879 5880 5881 5882 5883 5884 5884 5885 5886 5887 5888 5889 5890 5890 5891 5892 5892 5892 5893 5893 5893 5893 5893 5893 5893 5893 5893 5893 5893 5892 5892 5892 5892 5891
5867 5869 5869 5870 5871 5872 5873 5874 5876 5877 5878 5879 5880 5880 5881 5882 5883 5884 5885 5886 5887 5888 5889 5889 5890 5891 5891 5891 5892 5892 5892 5893 5892 5892 5892 5892 5892 5891 5891 5891 5891 5890 5890
5866 5866 5867 5868 5869 5870 5871 5872 5873 5874 5875 5876 5877 5877 5878 5879 5880 5882 5883 5884 5885 5886 5887 5888 5888 5889 5889 5890 5890 5891 5891 5891 5891 5891 5891 5891 5890 5890 5890 5890 5889 5889 5889
5864 5864 5865 5866 5867 5867 5868 5869 5870 5872 5873 5874 5874 5875 5876 5877 5878 5879 5881 5882 5883 5884 5885 5886 5887 5887 5887 5888 5888 5889 5889 5889 5889 5889 5890 5889 5889 5889 5888 5888 5888 5888 5887
5861 5862 5863 5864 5864 5865 5866 5867 5868 5869 5870 5871 5872 5873 5873 5874 5875 5877 5878 5879 5880 5882 5883 5884 5884 5885 5885 5886 5886 5887 5887 5887 5887 5888 5888 5888 5888 5887 5887 5887 5887 5886 5886
5859 5860 5860 5861 5862 5862 5863 5864 5865 5866 5867 5869 5869 5870 5871 5871 5873 5874 5875 5877 5878 5880 5881 5881 5882 5883 5883 5884 5884 5884 5885 5885 5886 5886 5886 5886 5886 5886 5886 5885 5885 5885 5884